Weather History for PHOG - May, 2013

Change the Weather History Date:

Sunday, May 26, 2013

  Actual Average Record
Temperature  
Mean Temperature 81 °F 77 °F  
Max Temperature 88 °F 85 °F 92 °F (1953)
Min Temperature 74 °F 68 °F 58 °F (1952)
Degree Days  
Heating Degree Days 0 0  
Month to date heating degree days 0 0  
Since 1 July heating degree days 0 0  
Cooling Degree Days 16 12  
Month to date cooling degree days 331 275  
Year to date cooling degree days 1314 1201  
Growing Degree Days 30 (Base 50)    
Moisture  
Dew Point 67 °F    
Average Humidity 67    
Maximum Humidity 87    
Minimum Humidity 46    
Precipitation  
Precipitation T in 0.02 in 0.21 in (1978)
Month to date precipitation 0.78 0.68  
Year to date precipitation 6.98 9.44  
Snow  
Snow 0.00 in - - ()
Month to date snowfall 0.0  
Since 1 July snowfall 0.0  
Snow Depth 0.00 in    
Sea Level Pressure  
Sea Level Pressure 30.07 in    
Wind  
Wind Speed 17 mph (NE)    
Max Wind Speed 26 mph    
Max Gust Speed 35 mph    
Visibility 10 miles    
Events      
T = Trace of Precipitation, MM = Missing Value Source: NWS Daily Summary

Daily Weather History Graph

Daily Weather History Graph

Search for Another Location

Airport or City:

Trip Planner

Search our weather history database for the weather conditions in past years. The results will help you decide how hot, cold, wet, or windy it might be!

Date:

Astronomy

May. 26, 2013 Rise Set
Actual Time 5:44 AM HST 7:01 PM HST
Civil Twilight 5:20 AM HST 7:25 PM HST
Nautical Twilight 4:51 AM HST 7:54 PM HST
Astronomical Twilight 4:21 AM HST 8:23 PM HST
Moon 9:02 PM HST (5/26) 7:24 AM HST (5/26)
Length of Visible Light 14h 04m
Length of Day
13h 16m
Waning Gibbous, 95% of the Moon is Illuminated
May 26
Waning Gibbous
May 31
Last Quarter
Jun 8
New
Jun 16
First Quarter
Jun 23
Full

Hourly Weather History & Observations

Time (HST) Temp. Heat Index Dew Point Humidity Pressure Visibility Wind Dir Wind Speed Gust Speed Precip Events Conditions
12:54 AM 75.0 °F - 68.0 °F 79% 30.09 in 10.0 mi NE 15.0 mph 23.0 mph N/A   Clear
1:54 AM 73.9 °F - 66.9 °F 79% 30.08 in 10.0 mi NE 13.8 mph - N/A   Clear
2:54 AM 73.9 °F - 66.9 °F 79% 30.06 in 10.0 mi NE 15.0 mph - N/A   Clear
3:54 AM 73.9 °F - 66.9 °F 79% 30.06 in 10.0 mi ENE 13.8 mph - N/A   Clear
4:54 AM 73.9 °F - 68.0 °F 82% 30.06 in 10.0 mi NE 10.4 mph - N/A   Clear
5:54 AM 73.9 °F - 69.1 °F 85% 30.07 in 10.0 mi NE 10.4 mph - N/A   Scattered Clouds
6:54 AM 75.9 °F - 68.0 °F 76% 30.09 in 10.0 mi NE 12.7 mph 20.7 mph N/A   Scattered Clouds
7:54 AM 79.0 °F - 66.9 °F 66% 30.09 in 10.0 mi ENE 11.5 mph 21.9 mph N/A   Mostly Cloudy
8:54 AM 81.0 °F 84.1 °F 69.1 °F 67% 30.09 in 10.0 mi ENE 21.9 mph 32.2 mph N/A   Scattered Clouds
9:54 AM 82.9 °F 85.8 °F 68.0 °F 60% 30.09 in 10.0 mi ENE 18.4 mph 23.0 mph N/A   Scattered Clouds
10:54 AM 87.1 °F 90.6 °F 68.0 °F 53% 30.08 in 10.0 mi NE 20.7 mph 28.8 mph 0.00 in   Scattered Clouds
11:54 AM 87.1 °F 89.9 °F 66.9 °F 51% 30.06 in 10.0 mi ENE 19.6 mph 26.5 mph N/A   Scattered Clouds
12:54 PM 88.0 °F 91.4 °F 68.0 °F 51% 30.04 in 10.0 mi NE 24.2 mph 29.9 mph N/A   Scattered Clouds
1:54 PM 87.1 °F 89.9 °F 66.9 °F 51% 30.04 in 10.0 mi ENE 20.7 mph 31.1 mph 0.00 in   Scattered Clouds
2:54 PM 87.1 °F 88.9 °F 64.9 °F 48% 30.02 in 10.0 mi ENE 24.2 mph 32.2 mph N/A   Scattered Clouds
3:54 PM 87.1 °F 89.9 °F 66.9 °F 51% 30.00 in 10.0 mi NE 24.2 mph 33.4 mph N/A   Scattered Clouds
4:54 PM 84.0 °F 85.8 °F 64.9 °F 53% 30.00 in 10.0 mi ENE 25.3 mph 34.5 mph 0.00 in   Partly Cloudy
5:54 PM 81.0 °F 83.0 °F 66.0 °F 60% 30.03 in 10.0 mi ENE 20.7 mph 28.8 mph 0.00 in   Partly Cloudy
6:54 PM 78.1 °F - 66.9 °F 68% 30.05 in 10.0 mi ENE 19.6 mph 27.6 mph N/A   Partly Cloudy
7:54 PM 77.0 °F - 66.0 °F 69% 30.07 in 10.0 mi ENE 20.7 mph 28.8 mph N/A   Clear
8:54 PM 75.9 °F - 64.9 °F 69% 30.09 in 10.0 mi NE 17.3 mph 25.3 mph 0.00 in   Clear
9:54 PM 75.9 °F - 66.0 °F 71% 30.12 in 10.0 mi ENE 16.1 mph 25.3 mph N/A   Clear
10:54 PM 75.9 °F - 66.9 °F 74% 30.12 in 10.0 mi ENE 15.0 mph - N/A   Clear
11:54 PM 73.9 °F - 68.0 °F 82% 30.12 in 10.0 mi NE 13.8 mph 18.4 mph N/A   Clear